User: anonymous   Login
Location: SAPM � Hemmingford
(45.0500°N, 73.5833°W)
Time: 14:00:54
(UTC-04:00)
Language:

Iridium 75 - Orbit

View from above orbital plane
View from above orbital plane
View from above satellite
View from above satellite

Ground track
Ground track

The orbit data is extracted from the following two-line orbital elements,

1 25346U 98032E   16237.41896789  .00000028  00000-0  27598-5 0  9999
2 25346  86.4004 348.1748 0002146  95.7803 332.1021 14.34219714957137
Epoch (UTC): 24 August 2016 10:03:18
Eccentricity: 0.0002146
inclination: 86.4004°
perigee height: 776 km
apogee height: 779 km
right ascension of ascending node: 348.1748°
argument of perigee: 95.7803°
revolutions per day: 14.34219714
mean anomaly at epoch: 332.1021°
orbit number at epoch: 95713

The dashed part of the orbit path shows where the satellite is in the earth's shadow,  

DLR